Regional Weather Roundup
Issued by NWS

Home | Current Version | Previous Version | Text Only | Print | Product List | Glossary Off
Versions: 1 2 3 4 5 6 7 8 9 10 11 12 13 14 15 16 17 18 19 20 21 22 23 24 25 26 27 28 29 30 31 32 33 34 35 36 37 38 39 40 41 42 43 44 45 46 47 48 49 50

000
ASUS45 KABQ 222110
RWRNM
WEATHER ROUNDUP FOR NEW MEXICO
NATIONAL WEATHER SERVICE ALBUQUERQUE NM
300 PM MDT WED OCT 22 2014

NOTE: "FAIR" MEANS FEW OR NO CLOUDS BELOW 12,000 FEET AGL WITH NO
       SIGNIFICANT WEATHER OR OBSTRUCTIONS TO VISION.

      THIS PRODUCT IS RELEASED AS TWO VERSIONS.  ONE VERSION NEAR
      THE TOP OF THE HOUR CONTAINING PRELIMINARY DATA FROM ALBUQUERQUE
      AND OTHER STATIONS.  A FINAL VERSION WITH ADDITIONAL DATA IS
      ISSUED ABOUT 10 MINUTES AFTER THE HOUR.

NMZ501-503-504-510>518-222200-
NORTHWEST PLATEAU/NORTHCENTRAL MOUNTAINS

CITY           SKY/WX    TMP DP  RH WIND       PRES   REMARKS
FARMINGTON     SUNNY     70  37  29 VRB5      30.13F
LOS ALAMOS     PTSUNNY   62  41  46 S5        30.22F
SANTA FE       PTSUNNY   66  38  35 NE6       30.17F
TAOS           SUNNY     63  36  36 W13       30.20F
ANGEL FIRE     FAIR      59  34  39 W8        30.26S

$$
NMZ402-403-502-505>509-222200-
WESTCENTRAL MOUNTAINS/SOUTHWEST MOUNTAINS

CITY           SKY/WX    TMP DP  RH WIND       PRES   REMARKS
GALLUP         SUNNY     68  36  30 S7        30.20S
GRANTS         MOSUNNY   66  34  30 CALM      30.21S
SILVER CITY    SUNNY     68  48  49 SW3       30.18S

$$
NMZ407-409-411-412-222200-
SOUTHERN DESERTS

CITY           SKY/WX    TMP DP  RH WIND       PRES   REMARKS
LORDSBURG      FAIR      73  48  40 MISG      30.10S
DEMING         PTSUNNY   74  52  46 VRB6      30.10F
LAS CRUCES     MOSUNNY   72  50  45 CALM      30.12F
HOLLOMAN AFB   SUNNY     73  55  53 SW6       30.09F
T OR C         SUNNY     72  48  42 S8        30.11F

$$
NMZ519>523-222200-
CENTRAL VALLEYS/CENTRAL HIGHLANDS

CITY           SKY/WX    TMP DP  RH WIND       PRES   REMARKS
ALBUQUERQUE    PTSUNNY   72  41  32 CALM      30.14F
DOUBLE EAGLE   PTSUNNY   70  37  30 SW6       30.17F
MORIARTY ARPT  FAIR      69  37  31 NW12      30.17F
CLINES CORNERS MOSUNNY   67  37  33 NW14G21   30.19F
BELEN          FAIR      74  38  26 NW3       30.12F
SOCORRO        FAIR      72  47  39 E3        30.12F

$$
NMZ524>526-539-540-222200-
SOUTHCENTRAL MOUNTAINS

CITY           SKY/WX    TMP DP  RH WIND       PRES   REMARKS
RUIDOSO        SUNNY     64  43  45 MISG      30.23S

$$
NMZ527>531-222200-
NORTHEAST HIGHLANDS/NORTHEAST PLAINS

CITY           SKY/WX    TMP DP  RH WIND       PRES   REMARKS
LAS VEGAS      PTSUNNY   69  34  27 NE6       30.16F
RATON          MOSUNNY   69  33  26 CALM      30.10F
CLAYTON        SUNNY     74  40  29 VRB7      30.07S

$$
NMZ532>537-222200-
EASTCENTRAL PLAINS

CITY           SKY/WX    TMP DP  RH WIND       PRES   REMARKS
TUCUMCARI      MOSUNNY   76  51  41 S8        30.02F
CANNON AFB     MOSUNNY   73  52  48 W7        30.08F
CLOVIS AIRPORT MOSUNNY   73  52  46 SW13      30.10F

$$
NMZ028-029-538-222200-
SOUTHEAST PLAINS

CITY           SKY/WX    TMP DP  RH WIND       PRES   REMARKS
ROSWELL        SUNNY     72  58  61 SE10      30.07F
CARLSBAD       MOSUNNY   70  60  70 E6        30.06F
HOBBS          MOSUNNY   72  55  56 S6        30.09F


$$



USA.gov is the U.S. government's official web portal to all federal, state and local government web resources and services.